Home > Weather > Guangzhou > Past weeks

Flag for China Weather for the Past 2 Weeks in Guangzhou, Guangdong, China

Now
50 °F

Clear.


Feels Like: 50 °F
Forecast: 41 / 68 °F
Wind: No wind

Location: Canton Airport

Current Time: Feb 7, 2016 at 11:47:07 PM

Latest Report: Feb 7, 2016 at 11:00 PM


Visibility: 10 mi

Pressure: 30.30 "Hg

Humidity: 62%

Dew point: 37 °F

Location of GuangzhouLocation

Historic Weather in Guangzhou — Graph

°F

Guangzhou Temperature Yesterday

Maximum temperature yesterday: 64 °F (at 4:00 PM)
Minimum temperature yesterday: 46 °F (at 6:30 AM)
Average temperature yesterday: 55 °F

High & Low Weather Summary for the Past Weeks

 TemperatureHumidityPressure
High68 °F (Jan 29, 2:30 PM)100% (Jan 27, 1:00 AM)30.72 "Hg (Jan 27, 1:00 AM)
Low36 °F (Jan 24, 3:00 AM)16% (Feb 7, 12:30 PM)29.98 "Hg (Jan 28, 2:30 PM)
Average51 °F70%30.27 "Hg
* Reported Jan 23 10:00 PM — Feb 7 10:30 PM, Guangzhou, Weather by CustomWeather, © 2016

Note: Actual official high and low records may vary slightly from our data, if they occured in-between our weather recording intervals... More about our weather records

Advertising

Guangzhou Weather History for the Previous 24 Hours

 ConditionsComfort  
Time TempWeatherWind HumidityBarometerVisibility
10:30 PM
Sun, Feb 7
50 °FClear.No wind62%30.30 "Hg10 mi
10:00 PM54 °FClear.3 mph44%30.30 "Hg10 mi
9:30 PM55 °FClear.1 mph38%30.27 "Hg10 mi
9:00 PM55 °FClear.1 mph38%30.27 "Hg10 mi
8:30 PM57 °FClear.3 mph31%30.27 "Hg10 mi
8:00 PM59 °FClear.8 mph29%30.27 "Hg10 mi
7:30 PM59 °FClear.6 mph29%30.27 "Hg10 mi
7:00 PM61 °FClear.6 mph23%30.27 "Hg10 mi
6:30 PM63 °FClear.6 mph24%30.27 "Hg10 mi
6:00 PM63 °FSunny.8 mph24%30.27 "Hg10 mi
5:30 PM64 °FSunny.10 mph21%30.24 "Hg10 mi
5:00 PM66 °FPassing clouds.10 mph19%30.24 "HgN/A
4:30 PM66 °FPassing clouds.8 mph21%30.24 "HgN/A
4:00 PM66 °FPassing clouds.8 mph21%30.24 "HgN/A
3:30 PM64 °FPassing clouds.8 mph22%30.27 "HgN/A
3:00 PM64 °FPassing clouds.8 mph22%30.27 "HgN/A
2:30 PM64 °FPassing clouds.8 mph24%30.30 "HgN/A
2:00 PM64 °FPassing clouds.10 mph22%30.30 "HgN/A
1:30 PM63 °FPassing clouds.8 mph22%30.33 "HgN/A
1:00 PM63 °FSunny.15 mph17%30.33 "Hg10 mi
12:30 PM61 °FPassing clouds.17 mph16%30.36 "HgN/A
12:00 PM61 °FPassing clouds.15 mph19%30.36 "HgN/A
11:30 AM59 °FPassing clouds.15 mph20%30.39 "HgN/A
11:00 AM57 °FSunny.15 mph20%30.39 "Hg10 mi
10:30 AM55 °FPassing clouds.10 mph24%30.39 "HgN/A
10:00 AM54 °FPassing clouds.10 mph28%30.39 "HgN/A
9:30 AM52 °FPassing clouds.6 mph32%30.39 "HgN/A
9:00 AM50 °FPassing clouds.3 mph37%30.39 "HgN/A
8:30 AM46 °FSunny.6 mph43%30.39 "Hg10 mi
8:00 AM46 °FSunny.6 mph43%30.39 "Hg10 mi
7:30 AM45 °FPassing clouds.6 mph46%30.39 "HgN/A
7:00 AM43 °FClear.1 mph53%30.36 "Hg10 mi
6:30 AM43 °FPassing clouds.3 mph57%30.36 "HgN/A
5:00 AM46 °FClear.8 mph46%30.33 "Hg10 mi
4:30 AM45 °FClear.6 mph53%30.33 "Hg10 mi
4:00 AM45 °FClear.6 mph53%30.33 "Hg10 mi
3:30 AM45 °FClear.6 mph53%30.36 "Hg10 mi
3:00 AM46 °FClear.3 mph50%30.36 "Hg10 mi
2:30 AM46 °FClear.8 mph46%30.36 "Hg10 mi
2:00 AM48 °FClear.10 mph43%30.36 "Hg10 mi
1:30 AM50 °FClear.13 mph37%30.39 "Hg10 mi
1:00 AM50 °FClear.10 mph37%30.39 "Hg10 mi
12:30 AM48 °FClear.10 mph43%30.39 "Hg10 mi
12:00 AM48 °FClear.6 mph46%30.39 "Hg10 mi
11:30 PM
Sat, Feb 6
50 °FClear.6 mph43%30.39 "Hg10 mi
11:00 PM52 °FClear.8 mph41%30.39 "Hg10 mi
Weather by CustomWeather, © 2016

See weather overviewHow to use our weather pages